Weather in North Vancouver

Canada     49°19′47″N   123°04′14″W
В апреле 2022 года жителям России запретили посещать сайт meteo.paraplan.net по решению Генеральной прокуратуры. Аудитория сайта уменьшилась в 10 раз. Владельцы сайта не видят смысла в поддержке погодного сервера в таких условиях. Сайт будет закрыт в октябре.
temp.,
°C
wind,
m/s
gust,
m/s
humid.,
%
clouds,
%
prec.,
mm/h
press.,
hPa
HPBL,
m
30 september, fri
fri3023:00+13ene11922 0.0 102328
02:00+12n009219 0.0 102312
05:00+12nw11948 0.0 102315
08:00+12nnw01925 0.0 102332
11:00+18sw216611 0.0 1022603
14:00+20wsw33575 0.0 1020768
17:00+20w23585 0.0 1018407
20:00+15n11815 0.0 101812
1 october, sat
sat123:00+14ne01860 0.0 101811
02:00+13nne11865 0.0 101811
05:00+13nne11825 0.0 101811
08:00+14nnw11770 0.0 101712
11:00+21sw21490 0.0 1017390
14:00+24wsw22410 0.0 1015550
17:00+24wsw23410 0.0 1013287
20:00+17n11630 0.0 101314
2 october, sun
sun223:00+16ene11680 0.0 101311
02:00+14ne11730 0.0 101313
05:00+14nne11730 0.0 101311
08:00+14nnw11720 0.0 101312
11:00+21sw21510 0.0 1013412
14:00+24sw21435 0.0 1013669
17:00+23sw21440 0.0 1012329
20:00+16nne11680 0.0 101311
3 october, mon
mon323:00+15ene11730 0.0 101417
02:00+15ne11760 0.0 101511
05:00+14ne11795 0.0 101511
08:00+14ne11750 0.0 101612
11:00+21sw11510 0.0 1016424
14:00+24sw21435 0.0 1016629
17:00+23sw11445 0.0 1015325
20:00+16nnw11690 0.0 101514
4 october, tue
tue423:00+15ne11700 0.0 101611
02:00+14ne11721 0.0 101611
05:00+14nne11725 0.0 101611
08:00+14nne116915 0.0 101612
11:00+21sw114714 0.0 1016396
14:00+24sw214169 0.0 1015619
17:00+22wsw1147100 0.0 1014267
20:00+17nnw1163100 0.0 101412